Total_Precipitation_Accumulation
2.72 3.03 3.18 3.54 3.45 3.48 3.81 4.29 4.31 4.60 4.55 4.35 4.02 3.61 3.46 3.20 2.85 2.91 3.03 2.86 2.76 3.05 3.72 4.26 4.20 3.95 3.63 3.58 3.53 3.34 3.03 2.79 2.55 2.16 1.97 2.01 2.03 1.92 1.86 1.81 1.68 1.53 1.34
3.27 3.62 3.72 3.89 3.69 3.69 4.16 4.49 4.55 5.15 5.00 4.75 4.19 3.84 3.60 3.44 3.13 2.97 3.18 3.30 2.89 2.79 3.30 4.14 4.54 4.43 4.23 4.19 3.99 3.71 3.39 3.11 2.97 2.47 2.10 2.00 2.11 2.11 2.01 1.92 1.71 1.52 1.29
3.74 4.07 4.07 3.99 4.00 3.99 4.40 4.69 4.81 4.96 4.68 4.45 4.27 4.02 3.82 3.58 3.13 3.14 3.19 3.37 3.18 2.95 3.22 3.68 4.23 4.47 4.66 4.79 4.59 4.27 3.79 3.36 3.05 2.66 2.21 2.07 2.11 2.08 1.99 1.91 1.70 1.44 1.18
3.79 4.37 4.17 4.02 4.41 4.24 4.51 5.14 5.20 5.11 5.05 4.75 4.54 4.06 3.82 3.64 3.11 3.05 3.08 3.29 3.65 3.15 3.24 3.63 3.92 4.13 4.77 5.27 5.29 5.11 4.55 3.89 3.23 2.76 2.32 2.10 2.09 2.04 1.96 1.83 1.70 1.46 1.15
3.66 4.17 4.10 4.23 4.25 4.57 4.75 4.42 5.18 5.32 5.15 4.81 4.09 3.86 3.46 3.28 3.23 2.92 3.06 3.12 3.51 3.36 3.37 3.44 3.71 3.92 4.69 5.63 6.12 6.06 5.58 4.83 4.03 3.42 3.00 2.78 2.73 2.51 2.18 1.95 1.77 1.59 1.26
3.56 4.12 3.99 3.99 4.06 4.55 4.72 4.67 5.16 5.14 4.79 4.67 3.65 3.48 3.32 2.93 2.90 2.95 2.75 2.96 3.25 2.93 3.19 3.50 3.93 3.49 3.84 4.48 5.56 6.20 6.24 5.91 5.23 4.82 4.51 4.09 3.75 3.27 2.64 2.15 1.87 1.70 1.49
3.45 4.04 3.71 4.14 4.05 4.26 4.37 4.33 4.72 4.86 4.46 4.43 4.35 3.87 3.10 2.63 2.59 2.58 2.62 2.81 2.83 2.95 3.62 4.21 4.39 4.22 3.96 3.81 4.22 4.98 5.91 6.24 5.79 5.33 5.30 5.09 4.79 4.09 3.25 2.59 2.12 1.82 1.66
3.30 3.55 3.91 3.80 3.86 4.10 4.12 4.14 4.50 4.51 4.04 4.13 4.41 4.47 3.68 3.30 2.73 2.11 2.43 2.58 2.69 3.11 3.41 3.63 4.05 4.42 4.57 4.85 4.14 4.00 4.81 5.60 5.82 5.54 5.27 5.33 5.15 4.33 3.60 3.27 2.77 2.23 1.99
3.11 3.30 3.58 3.60 3.67 3.51 3.78 4.01 3.98 4.04 3.97 3.90 3.93 4.42 4.10 3.65 3.05 2.41 2.22 2.34 2.72 3.03 3.08 3.33 3.39 3.74 4.07 4.80 4.84 4.24 4.04 4.29 4.90 5.57 5.52 5.19 4.92 4.28 3.79 3.65 3.46 2.97 2.65
2.89 3.06 3.20 3.19 3.24 3.18 3.48 3.20 3.32 3.66 3.94 3.80 3.68 3.59 3.67 3.81 3.69 3.00 2.45 2.30 2.60 2.76 2.74 2.69 2.99 3.47 3.62 3.97 4.30 4.14 3.76 3.43 3.67 4.46 5.10 5.16 4.87 4.32 4.03 4.07 4.27 4.00 3.40
2.70 2.65 2.87 2.96 2.95 2.87 2.97 3.03 3.38 3.32 3.48 3.54 3.55 3.53 3.64 3.68 3.50 3.32 2.92 2.75 2.67 2.37 2.33 2.49 2.78 3.16 3.35 3.59 3.92 3.87 3.86 3.33 3.27 3.45 3.89 4.40 4.64 4.57 4.29 4.37 4.88 4.97 4.47
2.61 2.51 2.59 2.79 2.70 2.68 2.81 2.93 3.03 3.03 3.13 3.25 3.27 3.30 3.60 3.49 3.41 3.51 3.12 2.94 2.81 2.44 2.37 2.46 2.60 2.89 3.06 3.25 3.13 3.40 3.41 3.06 2.95 2.87 2.89 3.19 3.63 3.98 4.14 4.41 5.03 5.38 5.25
2.16 2.26 2.40 2.52 2.49 2.52 2.58 2.76 2.81 2.91 3.07 3.11 3.03 3.05 3.13 3.16 3.32 3.50 3.57 3.16 2.88 2.47 2.51 2.42 2.39 2.66 2.77 3.08 3.03 2.96 2.65 2.52 2.36 2.27 2.35 2.45 2.62 2.93 3.20 3.64 4.32 4.90 5.14
1.88 1.97 2.10 2.15 2.25 2.37 2.37 2.78 2.75 2.84 2.99 2.92 2.72 3.17 3.05 2.79 3.03 3.27 3.58 3.78 3.41 2.88 2.83 2.67 2.41 2.37 2.53 2.68 2.75 2.58 2.15 2.11 1.91 1.86 1.87 1.91 1.97 2.09 2.30 2.55 2.94 3.33 3.76
2.05 2.09 2.09 2.13 2.25 2.47 2.65 2.93 2.89 2.92 3.05 2.92 2.93 3.13 2.98 2.75 2.78 2.87 3.35 3.79 3.95 3.48 3.17 3.02 2.80 2.42 2.35 2.37 2.53 2.26 2.21 2.11 1.81 1.73 1.69 1.60 1.58 1.67 1.84 1.97 2.08 2.24 2.42
2.27 2.28 2.30 2.32 2.27 2.36 2.59 2.84 2.83 2.85 3.00 3.00 3.04 3.21 3.16 2.87 2.90 2.93 3.28 3.68 3.92 4.03 3.49 3.04 2.99 2.64 2.40 2.17 2.41 2.22 2.12 2.12 1.85 1.68 1.63 1.55 1.48 1.44 1.45 1.51 1.58 1.65 1.78
2.15 2.12 2.09 2.13 2.15 2.26 2.47 2.56 2.46 2.54 2.58 2.77 2.70 2.85 2.97 3.13 3.10 3.12 3.35 3.53 3.76 4.07 3.61 3.24 3.30 3.11 2.82 2.53 2.39 2.32 2.10 1.99 1.86 1.76 1.57 1.53 1.46 1.37 1.35 1.37 1.38 1.44 1.53
1.83 1.75 1.81 1.90 1.91 1.98 2.14 2.10 2.07 2.23 2.39 2.60 2.78 2.92 2.78 2.95 3.02 3.01 3.20 3.40 3.65 3.94 3.77 3.56 3.65 3.58 3.32 2.95 2.78 2.64 2.24 2.04 1.92 1.92 1.69 1.54 1.46 1.41 1.33 1.34 1.36 1.35 1.39
1.51 1.50 1.60 1.69 1.69 1.79 1.82 1.83 1.95 2.05 2.19 2.39 2.60 2.61 2.52 2.71 2.68 2.83 2.93 3.07 3.31 3.58 3.72 3.58 3.60 3.67 3.40 3.16 3.03 2.64 2.38 2.39 2.04 2.06 2.02 1.73 1.53 1.45 1.43 1.38 1.35 1.37 1.38
1.48 1.52 1.62 1.69 1.68 1.73 1.78 1.94 2.07 2.14 2.21 2.21 2.19 2.17 2.15 2.25 2.38 2.68 2.76 2.84 3.02 3.27 3.41 3.44 3.49 3.51 3.36 3.31 3.31 2.93 2.75 2.63 2.35 2.01 2.03 1.79 1.69 1.61 1.51 1.42 1.39 1.42 1.49
1.46 1.52 1.67 1.76 1.81 1.77 1.67 1.93 2.10 2.05 2.12 2.10 2.01 1.85 1.76 1.87 2.03 2.23 2.12 2.37 2.64 2.83 2.95 3.11 3.24 3.43 3.27 3.36 3.21 3.11 2.94 2.85 2.73 2.38 2.29 1.93 1.78 1.65 1.52 1.43 1.40 1.42 1.53
1.52 1.51 1.53 1.65 1.60 1.34 1.51 1.76 1.90 1.95 2.08 2.11 1.99 1.85 1.71 1.71 1.77 1.82 1.83 1.91 2.14 2.34 2.52 2.81 3.00 3.17 3.04 3.05 3.27 3.24 3.14 2.97 2.84 2.66 2.78 2.59 2.28 2.11 1.79 1.47 1.42 1.39 1.44
1.59 1.62 1.57 1.60 1.58 1.53 1.63 1.66 1.67 1.78 1.99 2.03 2.07 2.07 1.73 1.43 1.60 1.57 1.64 1.64 1.69 1.84 2.10 2.46 2.64 2.67 2.87 2.95 3.29 3.30 3.42 3.29 3.09 2.95 3.14 3.07 2.88 2.68 1.99 1.76 1.73 1.47 1.35
1.64 1.65 1.65 1.65 1.71 1.67 1.71 1.59 1.64 1.63 1.78 1.88 1.91 1.89 1.83 1.71 1.62 1.62 1.63 1.59 1.44 1.52 1.73 1.78 1.94 2.24 2.77 3.14 3.22 3.25 3.54 3.50 3.25 3.10 3.19 3.24 2.98 2.87 2.31 1.88 1.71 1.44 1.28
1.65 1.62 1.61 1.62 1.63 1.71 1.78 1.68 1.68 1.64 1.77 1.77 1.74 1.67 1.63 1.65 1.71 1.59 1.65 1.63 1.51 1.46 1.51 1.63 1.71 1.94 2.26 2.65 2.91 2.99 3.09 3.24 3.21 3.14 3.19 3.30 3.18 3.10 3.02 2.62 2.01 1.69 1.37
1.84 1.79 1.71 1.70 1.69 1.76 1.75 1.55 1.52 1.45 1.56 1.62 1.68 1.56 1.45 1.39 1.47 1.46 1.57 1.71 1.59 1.50 1.55 1.55 1.51 1.61 1.78 2.00 2.17 2.17 2.36 2.57 2.66 2.80 2.77 3.06 3.28 3.42 3.59 3.40 2.79 2.21 1.84